Location: Olsztyn
(53.7767°N, 20.4765°E)
Time: 08:35:15
(UTC+01:00)

Transit 4A - Pass Details

Date: 03 October 2022
Orbit: 871 x 972 km, 66.8° (Epoch: 06 December)

Event Time Altitude Azimuth Distance (km) Brightness Sun altitude
Rises 05:44:08 0° 317° (NW) 3,523 10.6 -9.5°
Reaches altitude 10° 05:46:45 10° 322° (NW) 2,567 9.9 -9.1°
Maximum altitude 05:52:30 50° 38° (NE) 1,114 8.7 -8.3°
Drops below altitude 10° 05:58:09 10° 113° (ESE) 2,522 11.3 -7.5°
Sets 06:00:42 0° 119° (ESE) 3,456 12.0 -7.1°
